Temperature
14 14 15 15 12 9 11 12 12 13 14 15 15 15 15 15 15 16 16 16 16 16 15 15 15 15 15 15 15 15 15 15 15 15 15 15 15 15 15 15 15 14 14 15 15 15 14 14 14
14 14 15 14 10 11 11 11 11 13 14 15 15 15 15 15 15 15 15 15 15 15 15 15 15 15 15 15 15 15 15 15 15 15 15 15 15 15 14 14 14 14 14 14 15 14 14 14 14
14 14 15 9 9 10 12 12 11 13 14 15 15 15 15 14 15 15 15 15 15 15 15 14 14 14 14 14 14 15 15 15 15 14 14 14 14 15 14 14 14 14 14 14 14 14 14 14 14
14 14 13 9 11 10 11 12 12 12 14 15 14 14 14 14 15 15 15 15 15 15 14 14 14 14 14 14 14 14 14 14 14 14 14 14 14 14 14 14 14 14 14 14 14 14 14 14 14
14 14 10 9 10 10 10 11 12 12 13 14 14 13 14 14 14 15 15 15 14 14 14 14 14 14 14 14 14 14 14 14 14 14 14 14 14 14 14 14 14 14 14 14 14 14 14 14 14
14 10 9 9 10 10 10 12 13 12 12 13 13 13 14 14 14 14 14 14 14 14 14 14 14 14 14 14 14 14 14 14 14 14 14 14 14 14 14 14 14 14 14 14 14 14 14 14 13
12 8 9 10 10 10 12 12 12 12 12 13 14 13 13 14 14 14 14 14 14 14 14 14 14 14 14 14 14 14 14 14 14 14 14 14 14 14 14 14 14 14 13 13 13 14 13 13 13
13 8 9 8 9 10 12 12 13 13 13 14 14 13 13 14 13 13 13 13 13 13 13 14 14 14 14 14 13 13 13 13 13 13 13 13 13 13 14 14 13 13 13 13 13 13 13 13 13
12 8 8 9 9 11 11 12 12 13 13 13 13 14 14 14 13 13 13 13 13 13 13 13 13 13 13 13 13 13 13 13 13 13 13 13 13 13 13 13 13 13 13 13 13 13 13 13 13
11 8 9 10 9 10 11 11 12 12 11 12 13 13 13 13 13 13 13 13 13 13 13 13 13 13 13 13 13 13 13 13 13 13 13 13 13 13 13 13 13 13 13 13 13 13 13 12 12
9 8 9 10 11 11 11 11 12 11 10 12 13 13 13 13 13 13 13 13 13 13 13 13 13 13 13 13 13 13 13 12 12 12 12 12 12 12 12 13 13 13 13 13 13 12 12 12 12
8 8 9 10 11 11 11 11 10 11 12 13 13 13 12 12 12 12 12 12 12 12 12 12 12 12 12 13 13 12 12 12 12 12 12 12 12 12 12 12 12 12 12 12 12 12 12 12 12
8 9 10 10 10 10 10 10 10 11 12 12 12 12 12 12 12 12 12 12 12 12 12 12 12 12 12 12 12 12 12 12 12 12 12 12 12 12 12 12 12 12 12 12 12 12 12 12 11
8 9 9 9 10 10 9 9 9 11 12 12 12 12 12 12 12 12 12 12 12 12 12 12 12 12 12 12 12 12 12 12 12 12 12 12 11 12 12 12 12 12 12 12 11 11 11 11 11
9 8 8 8 9 9 9 8 8 11 11 11 12 12 12 12 12 12 12 12 12 12 12 12 12 12 12 11 11 11 11 11 11 11 11 11 11 11 11 11 11 11 11 11 11 11 11 11 11
8 8 8 9 8 9 9 9 10 11 11 10 11 11 11 12 12 12 12 12 12 12 12 12 11 11 11 11 11 11 11 11 11 11 11 11 11 11 11 11 11 11 11 11 11 11 11 11 10
7 7 7 8 8 8 8 8 9 10 10 10 10 11 11 11 11 12 12 12 12 12 12 11 11 11 11 11 11 11 11 11 11 10 10 10 10 10 11 11 11 11 11 11 10 10 10 10 10
7 7 7 7 8 7 7 7 8 9 9 9 9 10 10 11 11 12 11 11 11 11 11 11 11 11 11 11 11 10 10 10 10 10 10 10 10 10 10 10 10 10 10 10 10 10 10 10 10
8 7 7 7 8 7 7 7 8 8 8 8 8 9 10 10 11 11 11 11 11 11 11 11 11 11 10 10 10 10 10 10 10 10 10 10 10 10 10 10 10 10 10 10 10 10 9 9 9
7 7 7 7 8 7 6 7 7 7 7 8 8 8 9 10 10 11 11 11 11 11 11 11 10 10 10 10 10 10 10 10 10 9 9 9 9 9 9 10 10 10 10 10 10 9 9 9 9
7 7 7 7 7 7 7 7 7 7 7 8 8 9 9 9 10 11 11 11 11 11 11 10 10 10 10 10 10 9 9 9 9 9 9 9 9 9 9 9 9 9 9 9 9 9 9 9 8
7 7 7 7 7 6 6 6 7 7 7 7 7 8 9 10 10 10 10 10 10 10 10 10 10 10 10 10 9 9 9 9 9 9 9 9 9 9 8 9 9 9 9 9 9 9 9 9 8
7 7 7 7 6 5 5 5 6 6 7 8 7 8 9 10 10 10 10 10 10 10 10 10 10 9 9 9 9 9 9 9 9 8 8 8 8 8 8 8 8 8 8 8 8 8 8 8 8
6 6 6 5 5 6 5 5 6 6 7 8 7 8 9 9 9 10 10 10 10 10 9 9 9 9 9 9 9 9 9 8 8 8 8 8 8 8 8 8 8 8 8 8 8 8 8 8 8
6 6 6 6 5 6 5 5 6 6 7 7 7 7 8 9 9 9 9 9 9 9 9 9 9 9 9 9 9 8 8 8 8 8 8 8 7 7 7 7 8 7 7 7 7 7 7 7 7
5 6 6 6 6 5 5 5 6 6 6 6 7 7 8 8 8 9 9 9 9 9 9 9 8 8 8 8 8 8 8 8 8 8 7 7 7 7 7 7 7 7 7 7 7 7 7 7 7
5 5 6 5 5 5 5 5 5 6 6 5 5 6 6 7 8 8 8 9 9 9 9 8 8 8 8 8 8 8 8 8 7 7 7 7 7 7 7 7 7 7 6 6 6 6 6 6 6
6 5 4 5 5 6 6 5 5 6 6 5 5 5 6 7 7 8 8 8 8 8 8 8 8 8 8 8 8 8 7 7 7 7 7 6 6 6 6 6 6 6 6 6 6 6 6 6 6
5 5 5 4 5 5 5 6 6 5 5 5 5 5 6 6 7 7 8 8 8 8 8 8 8 8 7 7 7 7 7 7 6 6 6 6 6 6 6 6 6 6 6 5 5 5 5 5 5
5 5 4 5 4 4 4 5 5 4 4 4 4 5 6 6 6 6 7 7 7 7 7 7 7 7 7 7 7 7 7 6 6 6 6 6 6 6 6 6 5 5 5 5 5 5 5 5 5
Wind_Speed
7 4 3 4 5 4 3 5 4 3 3 2 1 2 4 4 4 3 1 2 4 6 9 11 12 11 11 10 10 10 10 10 10 10 10 10 10 10 10 10 10 10 10 10 9 9 9 9 10
3 2 5 5 5 1 6 5 5 5 3 1 1 1 2 1 0 0 1 2 4 6 8 9 12 11 11 11 10 10 10 10 10 10 9 10 10 10 10 10 9 9 9 9 9 9 8 9 9
3 5 5 5 4 6 6 5 6 3 2 0 1 1 1 1 1 2 2 4 5 6 6 8 11 11 10 10 10 10 10 10 9 9 9 9 9 9 9 10 9 9 9 9 8 8 8 8 8
4 5 5 4 4 5 5 4 3 1 2 0 1 0 1 1 2 3 1 5 6 5 5 7 10 10 11 10 10 10 10 10 9 9 9 9 9 9 9 9 10 9 9 8 8 8 8 7 7
5 5 4 0 5 5 5 4 3 2 1 1 1 2 1 2 1 2 4 5 6 5 5 7 9 9 10 10 10 10 10 9 9 9 9 9 9 9 10 10 10 9 8 8 8 8 7 7 7
5 5 3 4 6 5 4 3 3 2 2 1 2 2 2 1 2 2 4 4 4 5 4 6 9 9 9 9 10 10 10 10 10 9 9 9 9 10 10 10 9 9 8 8 8 7 7 7 7
5 4 4 4 4 5 4 3 4 4 3 4 4 3 2 2 1 2 3 4 3 3 3 3 5 7 8 9 9 9 9 10 10 10 10 9 10 10 10 10 9 8 8 8 7 7 7 7 7
5 5 3 4 5 6 3 2 3 5 4 2 4 5 4 4 2 3 4 3 2 2 2 2 3 4 5 7 8 8 8 8 10 11 10 10 10 10 9 9 9 8 8 7 7 7 7 7 7
4 3 4 6 7 6 2 2 2 2 2 2 3 4 4 4 4 4 3 2 1 1 1 1 2 3 4 5 7 7 8 9 10 10 11 10 8 8 8 8 8 8 7 7 7 7 7 7 7
4 4 8 5 5 4 3 3 3 1 2 3 3 3 1 4 5 4 4 4 4 3 3 2 2 2 4 5 5 5 6 7 7 8 9 8 8 8 7 8 8 8 8 7 7 7 7 7 7
5 6 4 4 4 3 3 3 3 4 7 9 8 6 5 5 5 6 6 6 5 4 3 3 3 2 3 3 4 4 5 6 7 8 8 8 8 7 7 6 6 7 7 7 6 7 7 6 6
3 5 4 4 3 3 4 4 4 8 10 7 8 7 6 7 8 9 8 7 5 4 5 3 3 3 3 4 4 4 4 4 5 6 8 8 5 4 4 4 5 5 6 6 6 6 6 6 6
4 4 4 5 5 5 5 7 6 10 10 6 5 5 8 9 9 8 7 7 6 6 6 5 4 4 3 3 3 4 4 4 5 6 7 8 5 4 4 3 4 5 5 5 5 5 5 5 5
4 4 5 5 6 4 6 8 6 12 6 5 7 8 9 9 9 7 7 7 7 7 7 6 5 5 4 4 3 4 5 5 5 5 6 7 6 5 4 3 3 4 4 5 5 5 4 3 4
1 3 6 5 5 4 3 9 10 11 4 6 8 8 8 8 8 9 9 8 8 8 7 7 6 6 6 5 4 4 5 6 5 5 6 7 7 6 5 4 3 3 5 6 5 5 5 3 3
1 1 5 5 4 4 5 11 9 5 7 8 8 8 8 8 8 9 8 8 7 6 7 7 6 6 6 5 4 4 5 5 4 5 6 6 7 7 6 4 3 5 6 5 4 3 3 3 3
1 4 6 6 3 4 6 10 8 3 6 8 8 8 7 7 8 7 7 7 7 7 7 7 6 6 7 6 5 4 5 5 4 5 5 5 6 7 6 5 4 6 5 4 3 2 2 3 3
6 6 6 6 3 3 7 12 11 5 6 9 8 7 7 8 10 7 6 6 6 6 6 6 6 6 6 5 4 3 4 3 3 4 4 6 6 7 6 4 5 6 4 3 3 3 2 2 3
4 5 7 7 4 4 10 14 14 9 7 8 8 8 9 9 8 5 5 5 5 5 6 6 6 5 5 4 4 4 5 4 3 3 4 5 6 7 6 4 5 5 5 5 5 3 3 2 2
7 7 8 6 3 5 8 14 12 9 8 9 10 10 9 7 5 5 5 5 6 6 6 6 6 6 6 5 5 4 4 4 4 3 3 4 5 6 6 5 5 5 5 5 5 4 3 1 2
11 11 9 7 5 3 6 10 7 6 6 6 7 8 8 8 8 6 6 6 6 6 7 7 7 7 7 6 4 4 3 3 2 3 3 3 5 5 5 6 6 6 6 6 6 6 5 3 1
12 9 8 6 4 5 1 6 7 5 6 6 7 6 7 7 7 6 6 6 7 7 6 6 6 6 6 7 7 7 6 5 5 4 4 4 5 5 6 6 6 6 6 6 7 6 4 6 4
7 3 5 5 5 6 4 5 8 3 6 7 6 6 6 6 6 6 7 7 6 6 6 6 6 6 6 7 8 8 6 5 4 4 5 4 4 5 5 6 6 6 5 6 6 5 5 4 4
5 2 1 0 2 7 8 7 8 5 7 6 5 4 4 4 4 5 4 4 4 4 4 5 6 6 6 7 7 8 9 8 7 6 6 5 3 4 5 6 6 5 5 6 6 6 7 5 4
4 4 1 2 4 8 5 7 9 7 6 5 5 5 4 3 3 3 3 3 3 4 5 5 6 6 6 7 7 8 8 9 9 8 8 7 5 4 6 5 6 5 5 6 6 6 6 6 6
8 8 7 6 6 4 3 8 7 5 3 3 3 3 2 2 3 4 4 4 4 4 5 6 6 6 6 7 7 7 7 6 6 7 7 8 6 6 6 6 6 6 6 6 6 5 5 5 5
6 7 5 4 2 3 6 6 7 3 2 2 2 1 2 2 2 3 3 3 4 4 5 7 7 6 7 7 7 6 7 6 7 7 6 5 5 5 6 7 7 6 6 6 6 5 6 6 5
5 6 4 5 5 6 6 6 5 5 4 3 2 2 3 3 2 2 3 3 4 4 4 4 6 7 7 7 7 7 7 7 7 7 7 6 6 6 7 7 7 7 7 7 6 5 6 6 5
5 5 5 4 4 5 5 6 5 6 4 3 3 2 1 2 2 2 3 2 2 1 2 3 4 5 5 6 6 6 6 6 7 7 7 7 6 7 8 8 7 8 7 7 7 6 6 6 5
7 7 7 5 5 5 4 7 2 3 2 1 1 1 2 2 2 2 2 2 1 1 2 3 4 4 5 6 6 6 6 6 7 7 7 7 7 7 7 8 8 8 7 8 8 8 7 8 8
Wind_Direction
355 22 66 57 58 57 224 234 217 239 235 240 224 188 175 176 180 205 291 146 137 151 160 165 160 156 151 145 141 140 138 135 133 131 129 128 128 132 133 130 124 118 114 109 107 105 106 106 105
3 45 56 62 99 180 253 232 219 221 222 309 355 139 151 209 344 116 294 173 140 145 149 159 160 159 156 151 148 144 142 141 139 137 136 132 129 130 131 132 127 121 116 111 107 107 107 107 108
59 51 82 83 137 193 227 224 220 253 268 223 44 57 157 202 273 224 249 163 134 137 142 155 160 162 160 156 155 152 148 145 143 142 140 136 132 133 131 125 121 119 117 114 111 109 111 110 111
70 48 58 88 211 223 224 236 215 290 322 42 135 59 299 320 238 230 178 141 132 134 139 155 159 165 165 161 160 158 155 151 149 145 143 140 135 133 128 120 114 111 114 115 113 110 110 109 112
58 77 75 309 243 247 238 239 205 204 240 296 135 169 266 331 348 123 118 126 138 139 137 152 157 162 165 166 165 163 158 154 153 150 147 142 137 134 125 119 116 114 114 114 111 110 110 108 112
58 72 112 227 246 262 255 222 184 196 224 235 145 165 236 328 74 103 111 117 137 143 137 152 160 159 160 166 168 167 164 159 155 151 147 142 135 130 126 122 119 119 117 112 110 109 110 109 109
109 114 180 211 240 261 243 197 183 189 214 216 173 167 257 256 203 112 99 104 107 124 127 137 153 157 161 164 166 167 166 163 156 150 144 140 133 130 128 123 120 119 117 113 109 106 109 111 109
123 118 172 214 220 246 236 189 198 185 220 208 159 173 227 222 164 105 87 84 81 104 127 135 142 142 147 159 162 164 161 164 157 149 144 140 135 133 130 128 124 122 120 117 110 105 105 106 107
98 101 212 216 206 237 212 195 238 209 192 222 211 207 220 151 133 115 104 81 108 153 183 155 151 143 143 149 157 155 158 161 157 152 146 140 133 132 132 131 128 125 123 121 113 107 104 100 102
114 184 224 214 202 216 211 210 223 226 235 236 251 252 182 146 156 165 180 186 193 209 219 201 182 166 154 154 144 140 146 150 149 147 144 139 133 131 132 137 133 128 124 121 114 109 103 97 97
167 203 224 233 224 214 220 238 219 195 239 225 220 217 187 187 193 197 203 201 204 208 211 203 193 176 163 148 142 136 138 135 134 138 137 135 128 125 122 120 118 116 114 106 105 100 102 107 107
194 236 225 241 214 210 219 228 239 217 232 230 215 199 189 200 208 210 209 211 205 207 216 213 188 173 170 156 148 141 137 131 131 137 138 133 125 122 123 116 115 112 111 106 103 104 105 107 112
219 252 243 244 249 244 245 243 249 251 249 248 227 208 206 211 219 222 216 214 210 207 214 213 198 189 175 159 156 150 146 143 142 141 144 143 137 141 131 124 120 117 118 116 112 110 108 107 108
230 252 274 262 247 243 241 260 243 259 239 223 220 223 222 222 223 223 218 218 216 213 210 206 202 193 173 176 178 160 151 147 142 144 148 145 144 143 137 132 124 122 126 123 124 124 118 111 112
253 299 297 256 226 234 220 272 238 250 209 225 231 232 233 230 225 223 219 215 215 213 203 198 196 186 173 178 177 160 151 147 144 151 155 151 149 147 140 141 136 134 131 120 113 107 107 102 98
42 303 281 265 202 198 172 260 260 234 198 227 239 240 240 239 231 229 221 216 213 204 196 197 190 179 176 172 172 163 151 145 146 154 160 159 158 155 144 145 146 139 131 126 124 121 102 96 98
239 246 251 281 221 181 197 254 273 222 201 232 241 242 239 245 245 235 222 215 212 201 193 190 187 179 177 170 166 166 152 147 148 151 156 166 166 161 152 154 148 141 130 126 132 118 117 120 105
220 226 245 248 249 199 233 258 275 260 230 241 245 247 241 240 244 234 220 212 207 199 190 187 185 183 176 165 155 162 154 154 145 151 162 167 168 166 157 149 147 145 141 137 131 121 92 116 120
195 216 248 254 244 229 249 264 274 272 250 249 251 248 244 244 246 234 219 208 194 187 185 188 185 184 168 160 170 180 181 176 174 171 168 173 171 168 162 156 156 156 158 157 143 126 109 91 99
230 247 261 280 251 237 270 274 270 258 244 238 241 244 242 245 247 237 220 202 195 192 191 191 191 187 181 180 178 179 165 166 174 175 163 175 178 174 171 165 169 168 159 153 150 137 127 116 131
231 230 241 258 315 294 302 294 270 259 244 247 243 241 239 232 230 228 219 210 201 199 197 198 196 192 188 180 163 150 132 118 150 176 184 179 179 182 176 175 171 171 170 173 172 163 150 159 179
240 225 226 241 268 279 241 285 278 261 274 259 253 245 244 239 227 221 216 213 208 207 199 197 196 194 186 177 173 169 173 175 183 181 189 186 182 182 181 177 176 175 176 177 179 174 165 159 170
221 195 207 220 222 267 241 244 278 267 267 264 254 246 248 238 224 220 217 216 217 207 196 194 190 190 184 182 183 179 181 179 166 165 177 186 189 186 183 179 178 180 181 180 178 174 170 168 172
177 110 89 113 189 254 225 213 272 230 233 255 258 246 247 239 227 230 228 218 221 205 194 188 184 189 185 185 186 184 181 176 169 175 181 185 190 191 188 180 180 182 181 182 182 180 179 178 172
157 144 197 263 233 247 189 206 250 239 232 235 249 259 262 247 227 234 229 221 221 211 200 189 183 192 188 186 189 192 188 183 185 186 187 187 190 197 197 186 184 184 183 177 175 179 183 181 178
197 184 188 210 227 262 201 229 253 251 249 256 258 264 282 272 238 231 233 227 226 219 206 194 193 198 193 191 195 195 191 188 192 192 189 191 195 198 189 187 184 184 181 175 172 178 185 183 184
175 208 201 178 208 252 249 269 294 264 275 300 310 324 294 278 272 256 244 237 232 219 211 201 197 197 196 194 193 196 194 192 193 192 191 190 191 189 186 186 184 183 181 176 173 182 188 185 189
181 166 153 184 202 241 258 251 244 243 249 279 299 296 307 319 312 301 277 248 239 225 212 198 194 197 198 193 194 198 198 196 194 190 192 193 193 187 184 187 185 182 182 178 178 183 187 182 188
171 187 191 189 198 197 242 256 225 211 221 227 241 248 273 295 303 312 308 286 252 227 198 195 197 195 195 196 197 195 197 193 190 194 196 193 190 187 188 187 184 183 183 179 179 185 182 183 189
197 190 175 196 229 211 220 258 270 201 238 222 242 300 333 334 335 332 325 329 312 259 225 205 202 201 203 199 193 194 193 191 193 198 198 192 189 190 189 186 183 184 185 182 182 186 187 189 194
Height
1497 1498 1500 1502 1507 1519 1519 1513 1509 1507 1505 1503 1503 1503 1504 1505 1508 1511 1506 1504 1505 1506 1508 1510 1512 1514 1516 1518 1519 1520 1522 1523 1524 1525 1526 1527 1528 1530 1531 1532 1533 1534 1535 1536 1537 1538 1539 1540 1541
1497 1499 1502 1503 1514 1523 1518 1510 1507 1504 1502 1502 1502 1502 1502 1503 1503 1503 1503 1503 1505 1506 1508 1510 1512 1514 1515 1517 1519 1520 1521 1523 1524 1525 1526 1527 1528 1529 1531 1532 1533 1534 1535 1536 1537 1538 1539 1540 1541
1498 1499 1502 1506 1515 1518 1510 1505 1503 1501 1501 1501 1501 1501 1502 1502 1502 1502 1503 1504 1505 1507 1508 1510 1512 1513 1515 1516 1518 1519 1521 1522 1524 1525 1526 1527 1528 1529 1531 1532 1533 1534 1535 1536 1537 1538 1539 1540 1541
1499 1501 1502 1510 1512 1510 1505 1501 1501 1500 1500 1500 1501 1501 1501 1502 1502 1502 1502 1504 1505 1506 1508 1510 1511 1513 1514 1516 1517 1519 1520 1522 1523 1524 1526 1527 1528 1529 1530 1531 1533 1534 1535 1536 1537 1538 1539 1540 1541
1499 1500 1508 1513 1510 1505 1501 1500 1500 1500 1500 1499 1500 1500 1500 1501 1501 1501 1502 1503 1505 1506 1508 1509 1511 1512 1513 1515 1517 1518 1520 1521 1522 1524 1525 1527 1528 1529 1530 1531 1532 1533 1535 1536 1536 1538 1539 1540 1541
1499 1501 1513 1514 1508 1503 1499 1498 1498 1498 1499 1499 1499 1500 1499 1500 1500 1501 1502 1503 1504 1506 1507 1509 1510 1511 1513 1514 1516 1517 1519 1520 1522 1523 1525 1526 1527 1529 1530 1531 1532 1533 1534 1535 1536 1537 1538 1540 1541
1499 1505 1510 1509 1507 1502 1497 1496 1496 1496 1497 1498 1498 1499 1498 1499 1500 1501 1501 1502 1503 1505 1506 1508 1509 1510 1512 1513 1515 1516 1518 1520 1521 1522 1524 1526 1527 1528 1529 1530 1531 1532 1533 1535 1536 1537 1538 1539 1540
1498 1504 1507 1508 1505 1500 1495 1494 1494 1495 1495 1496 1497 1497 1497 1498 1498 1499 1501 1501 1502 1504 1505 1506 1508 1509 1510 1512 1513 1515 1517 1519 1520 1522 1523 1525 1526 1528 1529 1530 1531 1532 1533 1534 1535 1536 1537 1538 1540
1497 1506 1507 1504 1501 1496 1493 1493 1493 1493 1494 1494 1494 1495 1495 1496 1497 1498 1499 1500 1501 1502 1503 1505 1506 1508 1509 1511 1512 1514 1516 1518 1519 1521 1522 1524 1525 1527 1528 1529 1530 1531 1532 1533 1534 1535 1537 1538 1539
1496 1504 1498 1494 1493 1492 1491 1491 1491 1492 1492 1491 1492 1492 1493 1494 1495 1495 1496 1497 1498 1500 1501 1503 1505 1506 1508 1509 1511 1512 1514 1516 1518 1519 1521 1523 1524 1526 1527 1528 1529 1530 1531 1532 1534 1535 1536 1537 1539
1494 1495 1492 1490 1490 1490 1490 1490 1490 1490 1489 1487 1487 1488 1490 1491 1492 1493 1494 1495 1496 1498 1499 1500 1502 1504 1506 1507 1509 1511 1512 1514 1516 1518 1519 1521 1523 1524 1525 1527 1528 1529 1530 1531 1533 1534 1535 1537 1538
1492 1490 1489 1488 1488 1488 1488 1487 1487 1485 1483 1484 1484 1485 1486 1488 1489 1490 1491 1492 1493 1495 1496 1498 1499 1501 1503 1505 1507 1508 1510 1512 1514 1515 1517 1519 1521 1522 1524 1525 1526 1528 1529 1530 1532 1533 1534 1536 1537
1490 1488 1487 1486 1486 1486 1486 1485 1484 1480 1479 1480 1481 1482 1482 1484 1485 1487 1488 1489 1490 1491 1493 1495 1496 1498 1500 1502 1504 1506 1508 1510 1511 1513 1515 1517 1518 1520 1521 1523 1525 1526 1528 1529 1530 1532 1533 1534 1536
1487 1486 1485 1484 1484 1484 1483 1481 1481 1472 1475 1476 1477 1477 1478 1479 1481 1483 1484 1485 1486 1487 1489 1491 1493 1495 1497 1499 1501 1503 1505 1507 1509 1511 1512 1514 1516 1518 1519 1521 1523 1525 1526 1528 1529 1530 1532 1533 1535
1486 1486 1484 1481 1481 1481 1482 1479 1474 1468 1472 1472 1473 1473 1475 1475 1477 1478 1479 1481 1482 1484 1485 1487 1489 1491 1493 1495 1498 1500 1502 1504 1506 1508 1509 1511 1514 1515 1517 1519 1521 1523 1524 1526 1527 1529 1530 1532 1533
1486 1487 1487 1479 1478 1478 1483 1476 1466 1467 1468 1468 1468 1469 1470 1471 1472 1473 1475 1477 1478 1480 1482 1484 1486 1488 1490 1492 1495 1497 1498 1501 1503 1505 1507 1509 1511 1513 1515 1517 1519 1521 1522 1524 1525 1527 1528 1530 1531
1488 1489 1485 1480 1476 1477 1479 1473 1464 1464 1465 1464 1465 1465 1466 1466 1467 1469 1471 1472 1474 1475 1477 1480 1482 1484 1486 1489 1492 1493 1495 1497 1499 1502 1504 1506 1508 1510 1512 1514 1516 1518 1520 1521 1523 1524 1526 1527 1529
1485 1487 1483 1480 1475 1476 1476 1470 1463 1462 1462 1461 1461 1461 1461 1461 1462 1464 1466 1468 1470 1472 1474 1476 1478 1480 1482 1485 1487 1489 1491 1493 1496 1498 1500 1503 1505 1508 1510 1512 1513 1515 1517 1518 1520 1522 1524 1525 1527
1478 1481 1480 1477 1473 1475 1472 1467 1460 1458 1459 1457 1456 1456 1456 1456 1458 1460 1462 1464 1466 1467 1470 1472 1474 1476 1478 1480 1482 1484 1486 1489 1492 1494 1497 1499 1501 1504 1507 1508 1510 1512 1514 1515 1517 1519 1521 1523 1524
1477 1478 1477 1474 1472 1472 1470 1464 1457 1454 1453 1451 1451 1451 1451 1452 1453 1456 1458 1460 1462 1463 1466 1468 1470 1472 1474 1476 1478 1480 1482 1485 1488 1491 1493 1495 1498 1500 1503 1505 1506 1508 1510 1512 1514 1516 1518 1520 1521
1474 1475 1474 1474 1472 1470 1470 1461 1454 1449 1448 1447 1446 1446 1446 1447 1449 1451 1453 1455 1458 1460 1462 1464 1466 1468 1470 1472 1474 1476 1478 1481 1484 1486 1489 1491 1494 1496 1499 1501 1503 1505 1507 1508 1510 1512 1514 1516 1518
1469 1467 1469 1471 1475 1476 1473 1471 1453 1449 1446 1443 1442 1441 1442 1443 1445 1447 1449 1451 1453 1456 1458 1460 1462 1463 1465 1467 1469 1471 1472 1475 1478 1482 1485 1487 1490 1492 1495 1497 1499 1501 1503 1505 1507 1509 1511 1513 1514
1464 1464 1467 1469 1473 1475 1473 1473 1455 1449 1445 1440 1438 1438 1438 1440 1442 1443 1445 1447 1450 1452 1454 1455 1457 1459 1461 1463 1465 1466 1468 1471 1475 1478 1481 1483 1486 1488 1490 1492 1495 1497 1499 1501 1503 1505 1507 1509 1511
1461 1465 1468 1471 1474 1471 1466 1471 1455 1449 1440 1436 1435 1435 1436 1437 1439 1441 1442 1444 1446 1448 1450 1451 1453 1455 1457 1459 1461 1462 1464 1467 1470 1473 1476 1479 1481 1483 1485 1488 1490 1492 1495 1496 1498 1500 1503 1505 1508
1459 1466 1471 1471 1472 1464 1461 1462 1449 1438 1435 1433 1433 1433 1434 1435 1437 1438 1439 1440 1442 1444 1446 1447 1449 1451 1453 1455 1457 1459 1461 1463 1465 1468 1471 1473 1476 1478 1480 1483 1485 1488 1490 1492 1494 1496 1499 1501 1504
1456 1458 1464 1466 1465 1463 1462 1457 1443 1434 1432 1431 1431 1432 1432 1433 1434 1435 1436 1438 1439 1440 1442 1444 1445 1447 1450 1452 1453 1455 1457 1459 1461 1464 1466 1469 1471 1473 1476 1478 1481 1483 1486 1488 1490 1493 1495 1497 1500
1453 1455 1454 1461 1464 1464 1458 1451 1441 1432 1430 1430 1430 1430 1430 1431 1432 1433 1434 1435 1436 1437 1438 1440 1442 1444 1446 1448 1450 1451 1453 1455 1457 1459 1462 1464 1467 1469 1471 1474 1476 1479 1481 1484 1486 1489 1491 1493 1496
1447 1450 1457 1458 1457 1455 1449 1448 1441 1431 1429 1429 1429 1429 1429 1430 1430 1430 1431 1432 1433 1434 1435 1437 1438 1440 1442 1444 1446 1447 1449 1451 1453 1455 1457 1460 1462 1465 1467 1469 1471 1474 1477 1479 1482 1485 1487 1489 1491
1447 1449 1449 1452 1451 1451 1449 1442 1430 1428 1427 1428 1428 1428 1428 1429 1428 1428 1429 1430 1431 1432 1433 1434 1435 1437 1438 1440 1442 1443 1445 1447 1449 1451 1453 1455 1458 1460 1463 1465 1467 1469 1472 1475 1477 1480 1482 1484 1487
1438 1441 1446 1449 1449 1450 1448 1440 1426 1427 1426 1427 1427 1427 1427 1427 1427 1427 1427 1427 1428 1429 1430 1431 1432 1433 1434 1436 1438 1439 1441 1443 1445 1447 1449 1451 1454 1456 1458 1460 1462 1465 1468 1470 1473 1476 1478 1480 1482